Location: Unspecified
(0.0000°N, 0.0000°E)
Time: 07:59:31
(UTC+00:00)

Vanguard 2 Rocket - All Passes

Search period start: 20 August 2017 00:00
Search period end: 30 August 2017 00:00
Orbit: 554 x 3328 km, 32.9° (Epoch: 19 August)

Date Brightness Start Highest point End Pass type
(mag) Time Alt. Az. Time Alt. Az. Time Alt. Az.
20 Aug - 00:11:14 10° SSW 00:20:23 28° SSE 00:26:13 10° E night (unlit)
20 Aug - 02:27:32 10° WSW 02:35:02 68° NW 02:39:39 10° NE night (unlit)
20 Aug - 11:30:31 10° NNW 11:38:20 27° NE 11:50:09 10° E daylight
20 Aug - 13:41:47 10° NW 13:53:55 84° NE 14:13:33 10° SE daylight
20 Aug - 15:57:34 10° W 16:12:46 45° SSW 16:31:49 10° SE daylight
20 Aug - 18:21:06 10° WSW 18:35:00 22° SSW 18:48:13 10° SSE visible
20 Aug - 20:49:54 10° SSW 20:58:57 15° S 21:06:24 10° SSE visible
20 Aug - 23:09:48 10° SSW 23:19:34 23° SSE 23:26:10 10° ESE visible
21 Aug - 01:26:20 10° SW 01:35:42 69° SSE 01:41:03 10° ENE night (unlit)
21 Aug - 03:45:27 10° WNW 03:48:26 14° NW 03:50:56 10° N visible
21 Aug - 10:33:32 10° N 10:38:13 15° NE 10:44:14 10° ENE daylight
21 Aug - 12:42:44 10° NW 12:53:01 62° NE 13:10:30 10° ESE daylight
21 Aug - 14:56:38 10° WNW 15:10:24 57° SSW 15:30:09 10° SE daylight
21 Aug - 17:16:51 10° WSW 17:31:34 27° SSW 17:47:12 10° SSE daylight
21 Aug - 19:44:52 10° SW 19:55:42 17° S 20:05:01 10° SSE visible
21 Aug - 22:07:46 10° SSW 22:18:05 20° SSE 22:25:31 10° ESE visible
22 Aug - 00:24:58 10° SW 00:35:49 47° SSE 00:42:03 10° E night (unlit)
22 Aug - 02:42:57 10° WSW 02:49:27 33° NW 02:53:48 10° NNE night (unlit)
22 Aug - 11:44:14 10° NNW 11:52:42 41° NE 12:06:50 10° ESE daylight
22 Aug - 13:56:34 10° WNW 14:08:36 73° SW 14:28:02 10° SE daylight
22 Aug - 16:14:01 10° W 16:28:26 34° SSW 16:45:51 10° SE daylight
22 Aug - 18:39:32 10° SW 18:51:59 19° S 19:03:32 10° SSE visible
22 Aug - 21:05:00 10° SSW 21:15:52 19° S 21:24:14 10° SE visible
22 Aug - 23:23:22 10° SW 23:35:20 35° SSE 23:42:33 10° E visible
23 Aug - 01:41:02 10° WSW 01:50:22 65° NW 01:55:44 10° NE night (unlit)
23 Aug - 10:46:25 10° NNW 10:52:49 25° NE 11:02:26 10° E daylight
23 Aug - 12:57:09 10° NW 13:07:28 87° NE 13:25:28 10° SE daylight
23 Aug - 15:12:26 10° W 15:25:46 42° SSW 15:44:11 10° SE daylight
23 Aug - 17:34:49 10° WSW 17:48:12 22° SSW 18:01:55 10° SSE daylight
23 Aug - 20:01:26 10° SSW 20:12:54 18° S 20:22:24 10° SE visible
23 Aug - 22:21:28 10° SSW 22:34:12 29° SSE 22:42:30 10° ESE visible
24 Aug - 00:39:11 10° SW 00:50:51 79° SSE 00:57:11 10° ENE night (unlit)
24 Aug - 02:59:35 10° W 03:03:47 17° NW 03:07:04 10° N night (unlit)
24 Aug - 09:50:13 10° NNE 09:53:05 12° NE 09:56:30 10° ENE daylight
24 Aug - 11:58:20 10° NW 12:07:00 62° NE 12:22:29 10° ESE daylight
24 Aug - 14:11:50 10° WNW 14:23:40 53° SSW 14:42:11 10° SE daylight
24 Aug - 16:31:16 10° WSW 16:44:40 26° SSW 17:00:08 10° SSE daylight
24 Aug - 18:57:16 10° SW 19:09:17 18° S 19:20:06 10° SE visible
24 Aug - 21:19:13 10° SSW 21:32:23 25° SSE 21:41:44 10° ESE visible
24 Aug - 23:37:17 10° SW 23:50:43 56° SSE 23:58:11 10° ENE visible
25 Aug - 01:56:32 10° WSW 02:04:43 35° NW 02:09:51 10° NNE night (unlit)
25 Aug - 11:00:02 10° NNW 11:07:08 39° NE 11:19:04 10° ESE daylight
25 Aug - 13:12:00 10° WNW 13:22:14 68° SSW 13:39:54 10° SE daylight
25 Aug - 15:28:57 10° WSW 15:41:37 31° SSW 15:58:13 10° SE daylight
25 Aug - 17:52:58 10° SW 18:05:20 19° S 18:17:36 10° SSE daylight
25 Aug - 20:16:34 10° SSW 20:29:49 22° SSE 20:40:10 10° ESE visible
25 Aug - 22:35:15 10° SW 22:49:55 42° SSE 22:58:39 10° E visible
26 Aug - 00:54:00 10° WSW 01:05:26 63° NW 01:11:46 10° NE night (unlit)
26 Aug - 10:02:28 10° N 10:07:37 22° NE 10:15:06 10° E daylight
26 Aug - 12:12:49 10° NW 12:21:29 89° SW 12:37:24 10° SE daylight
26 Aug - 14:27:44 10° W 14:39:12 38° SSW 14:56:09 10° SE daylight
26 Aug - 16:49:08 10° SW 17:01:27 21° S 17:15:03 10° SSE daylight
26 Aug - 19:13:33 10° SSW 19:26:32 20° S 19:37:45 10° SE visible
26 Aug - 21:33:07 10° SW 21:48:26 34° SSE 21:58:29 10° E visible
26 Aug - 23:51:36 10° SW 00:05:39 86° SE 00:13:12 10° ENE visible
27 Aug - 02:13:10 10° W 02:19:01 19° NW 02:23:16 10° N night (unlit)
27 Aug - 11:14:08 10° NW 11:21:25 63° NE 11:34:40 10° ESE daylight
27 Aug - 13:27:24 10° W 13:37:26 47° SSW 13:53:59 10° SE daylight
27 Aug - 15:46:14 10° WSW 15:58:00 24° SSW 16:12:32 10° SSE daylight
27 Aug - 18:10:16 10° SW 18:22:43 19° S 18:34:37 10° SE visible
27 Aug - 20:30:52 10° SSW 20:46:16 29° SSE 20:57:30 10° ESE visible
27 Aug - 22:49:16 10° SW 23:05:11 63° SSE 23:14:07 10° ENE visible
28 Aug - 01:09:33 10° WSW 01:19:46 37° NW 01:25:53 10° NNE night (unlit)
28 Aug - 10:16:00 10° NNW 10:21:55 37° NE 10:31:43 10° ESE daylight
28 Aug - 12:27:46 10° WNW 12:36:21 61° SSW 12:51:46 10° SE daylight
28 Aug - 14:44:22 10° WSW 14:55:11 28° SSW 15:10:08 10° SSE daylight
28 Aug - 17:06:59 10° SW 17:18:42 19° S 17:31:06 10° SE daylight
28 Aug - 19:28:34 10° SSW 19:43:24 24° SSE 19:55:33 10° ESE visible
28 Aug - 21:47:01 10° SW 22:04:03 49° SSE 22:14:28 10° E visible
29 Aug - 00:06:28 10° WSW 00:20:11 62° NW 00:27:44 10° NE night (unlit)
29 Aug - 09:18:38 10° N 09:22:42 19° NE 09:28:15 10° E daylight
29 Aug - 11:28:42 10° WNW 11:35:58 84° SW 11:49:31 10° SE daylight
29 Aug - 13:43:25 10° W 13:53:05 33° SSW 14:07:52 10° SE daylight
29 Aug - 16:04:03 10° SW 16:14:54 19° S 16:27:36 10° SSE daylight
29 Aug - 18:26:13 10° SSW 18:39:56 21° SSE 18:52:32 10° SE visible
29 Aug - 20:44:52 10° SW 21:02:14 39° SSE 21:14:06 10° E visible
29 Aug - 23:03:40 10° SW 23:20:02 89° NW 23:29:02 10° NE visible
